When you browse on this site, cookies collect data to enhance your experience and personalize the content and advertising you see.
Visit our Privacy Policy to learn more. By continuing to use the site, you agree to this use of cookies and data.
  • In Czech Republic
  • List of Countries
  • For 7 days
  • Water Temperature
  • Satellite Maps
  • Weather Map
  • Weather Widgets
  • user-avatar
    Login

    Hourly Weather Bafoussam

    Today, 21 June, Friday

    Time Temperature Precipitation Wind Pressure Humidity
    00:00 +18°C° 0 mm 1 mps 646 mmHg 96%
    01:00 +18°C° 0 mm 1 mps 646 mmHg 96%
    02:00 +18°C° 0.1 mm 1 mps 645 mmHg 96%
    03:00 +18°C° 0.1 mm 1 mps 645 mmHg 96%
    04:00 +18°C° 0.1 mm 1 mps 645 mmHg 97%
    05:00 +18°C° 0.1 mm 1 mps 645 mmHg 96%
    06:00 +17°C° 0.1 mm 0 mps 646 mmHg 96%
    07:00 +17°C° 0.1 mm 0 mps 646 mmHg 96%
    08:00 +19°C° 0.3 mm 0 mps 647 mmHg 92%
    09:00 +20°C° 0.3 mm 0 mps 648 mmHg 88%
    10:00 +22°C° 0.3 mm 0 mps 648 mmHg 84%
    11:00 +22°C° 1.7 mm 0 mps 648 mmHg 85%
    12:00 +24°C° 1.7 mm 1 mps 647 mmHg 85%
    13:00 +24°C° 1.7 mm 1 mps 647 mmHg 86%
    14:00 +24°C° 1.6 mm 1 mps 646 mmHg 87%
    15:00 +22°C° 1.6 mm 0 mps 645 mmHg 87%
    16:00 +21°C° 1.6 mm 0 mps 645 mmHg 88%
    17:00 +20°C° 1.1 mm 0 mps 645 mmHg 90%
    18:00 +21°C° 1.1 mm 1 mps 645 mmHg 92%
    19:00 +20°C° 1.1 mm 1 mps 645 mmHg 94%
    20:00 +20°C° 0.5 mm 1 mps 645 mmHg 94%
    21:00 +19°C° 0.5 mm 1 mps 646 mmHg 95%
    22:00 +19°C° 0.5 mm 1 mps 646 mmHg 95%
    23:00 +19°C° 0.3 mm 1 mps 646 mmHg 96%

    Tomorrow, 22 June, Saturday

    Time Temperature Precipitation Wind Pressure Humidity
    00:00 +18°C° 0.3 mm 1 mps 646 mmHg 97%
    01:00 +18°C° 0.3 mm 1 mps 646 mmHg 97%
    02:00 +18°C° 0.1 mm 1 mps 645 mmHg 98%
    03:00 +18°C° 0.1 mm 1 mps 645 mmHg 98%
    04:00 +18°C° 0.1 mm 1 mps 645 mmHg 98%
    05:00 +19°C° 0 mm 1 mps 645 mmHg 97%
    06:00 +19°C° 0 mm 1 mps 646 mmHg 97%
    07:00 +19°C° 0 mm 1 mps 646 mmHg 97%
    08:00 +20°C° 0.6 mm 1 mps 647 mmHg 94%
    09:00 +21°C° 0.6 mm 1 mps 647 mmHg 91%
    10:00 +23°C° 0.6 mm 1 mps 648 mmHg 88%
    11:00 +23°C° 1.7 mm 1 mps 648 mmHg 88%
    12:00 +23°C° 1.7 mm 1 mps 647 mmHg 88%
    13:00 +23°C° 1.7 mm 1 mps 647 mmHg 88%
    14:00 +23°C° 0.8 mm 1 mps 646 mmHg 88%
    15:00 +23°C° 0.8 mm 1 mps 645 mmHg 87%
    16:00 +23°C° 0.8 mm 2 mps 645 mmHg 87%
    17:00 +22°C° 0.3 mm 1 mps 645 mmHg 90%
    18:00 +21°C° 0.3 mm 1 mps 645 mmHg 93%
    19:00 +20°C° 0.3 mm 1 mps 644 mmHg 95%
    20:00 +19°C° 0 mm 1 mps 645 mmHg 96%
    21:00 +19°C° 0 mm 1 mps 645 mmHg 96%
    22:00 +18°C° 0 mm 1 mps 645 mmHg 96%
    23:00 +18°C° 0 mm 1 mps 645 mmHg 97%

    Day after tomorrow, 23 June, Sunday

    Time Temperature Precipitation Wind Pressure Humidity
    00:00 +18°C° 0 mm 1 mps 645 mmHg 97%
    01:00 +18°C° 0 mm 1 mps 645 mmHg 97%
    02:00 +18°C° 0 mm 1 mps 645 mmHg 97%
    03:00 +18°C° 0 mm 1 mps 645 mmHg 97%
    04:00 +18°C° 0 mm 1 mps 644 mmHg 97%
    05:00 +18°C° 0 mm 1 mps 644 mmHg 97%
    06:00 +18°C° 0 mm 1 mps 645 mmHg 97%
    07:00 +18°C° 0 mm 1 mps 645 mmHg 96%
    08:00 +20°C° 0.1 mm 1 mps 646 mmHg 91%
    09:00 +22°C° 0.1 mm 1 mps 646 mmHg 86%
    10:00 +23°C° 0.1 mm 1 mps 647 mmHg 81%
    11:00 +24°C° 0.7 mm 1 mps 647 mmHg 80%
    12:00 +24°C° 0.7 mm 1 mps 647 mmHg 79%
    13:00 +25°C° 0.7 mm 1 mps 646 mmHg 79%
    14:00 +24°C° 1 mm 1 mps 646 mmHg 81%
    15:00 +24°C° 1 mm 1 mps 645 mmHg 84%
    16:00 +24°C° 1 mm 1 mps 644 mmHg 87%
    17:00 +22°C° 1.2 mm 1 mps 644 mmHg 90%
    18:00 +21°C° 1.2 mm 1 mps 644 mmHg 93%
    19:00 +20°C° 1.2 mm 1 mps 645 mmHg 95%
    20:00 +20°C° 1.6 mm 1 mps 645 mmHg 96%
    21:00 +19°C° 1.6 mm 1 mps 645 mmHg 97%
    22:00 +17°C° 1.6 mm 0 mps 646 mmHg 97%
    23:00 +17°C° 0.9 mm 0 mps 645 mmHg 97%

    24 June, Monday

    Time Temperature Precipitation Wind Pressure Humidity
    00:00 +19°C° 0.9 mm 1 mps 645 mmHg 97%
    01:00 +18°C° 0.9 mm 1 mps 645 mmHg 97%
    02:00 +18°C° 0.1 mm 1 mps 644 mmHg 97%
    03:00 +18°C° 0.1 mm 1 mps 644 mmHg 97%
    04:00 +18°C° 0.1 mm 1 mps 644 mmHg 97%
    05:00 +18°C° 0 mm 1 mps 644 mmHg 97%
    06:00 +18°C° 0 mm 1 mps 644 mmHg 97%
    07:00 +19°C° 0 mm 1 mps 645 mmHg 97%
    08:00 +20°C° 0.1 mm 1 mps 645 mmHg 95%
    09:00 +20°C° 0.1 mm 1 mps 646 mmHg 93%
    10:00 +21°C° 0.1 mm 1 mps 647 mmHg 90%
    11:00 +20°C° 1.1 mm 0 mps 646 mmHg 89%
    12:00 +21°C° 1.1 mm 0 mps 646 mmHg 88%
    13:00 +22°C° 1.1 mm 0 mps 646 mmHg 86%
    14:00 +21°C° 1 mm 0 mps 645 mmHg 88%
    15:00 +21°C° 1 mm 0 mps 644 mmHg 90%
    16:00 +20°C° 1 mm 0 mps 644 mmHg 92%
    17:00 +19°C° 0.7 mm 0 mps 644 mmHg 93%
    18:00 +18°C° 0.7 mm 0 mps 644 mmHg 93%
    19:00 +17°C° 0.7 mm 0 mps 644 mmHg 94%
    20:00 +19°C° 0.3 mm 1 mps 644 mmHg 95%
    21:00 +19°C° 0.3 mm 1 mps 645 mmHg 95%
    22:00 +17°C° 0.3 mm 2 mps 645 mmHg 96%
    23:00 +18°C° 0 mm 1 mps 644 mmHg 96%

    25 June, Tuesday

    Time Temperature Precipitation Wind Pressure Humidity
    00:00 +18°C° 0 mm 1 mps 644 mmHg 97%
    01:00 +18°C° 0 mm 1 mps 644 mmHg 97%
    02:00 +18°C° 0 mm 1 mps 644 mmHg 97%
    03:00 +18°C° 0 mm 1 mps 644 mmHg 97%
    04:00 +18°C° 0 mm 1 mps 644 mmHg 97%
    05:00 +18°C° 0 mm 1 mps 644 mmHg 97%
    06:00 +18°C° 0 mm 1 mps 644 mmHg 97%
    07:00 +18°C° 0 mm 1 mps 644 mmHg 96%
    08:00 +20°C° 0 mm 1 mps 645 mmHg 90%
    09:00 +22°C° 0 mm 1 mps 646 mmHg 84%
    10:00 +21°C° 0 mm 0 mps 647 mmHg 78%
    11:00 +22°C° 0.7 mm 0 mps 647 mmHg 79%
    12:00 +24°C° 0.7 mm 1 mps 646 mmHg 80%
    13:00 +24°C° 0.7 mm 1 mps 646 mmHg 82%
    14:00 +23°C° 1.6 mm 1 mps 645 mmHg 86%
    15:00 +22°C° 1.6 mm 1 mps 644 mmHg 90%
    16:00 +21°C° 1.6 mm 1 mps 644 mmHg 94%
    17:00 +21°C° 1 mm 1 mps 644 mmHg 95%
    18:00 +20°C° 1 mm 1 mps 644 mmHg 95%
    19:00 +19°C° 1 mm 1 mps 644 mmHg 96%
    20:00 +19°C° 0.3 mm 1 mps 644 mmHg 96%
    21:00 +19°C° 0.3 mm 1 mps 645 mmHg 97%
    22:00 +18°C° 0.3 mm 1 mps 645 mmHg 97%
    23:00 +18°C° 0.1 mm 1 mps 645 mmHg 97%

    26 June, Wednesday

    Time Temperature Precipitation Wind Pressure Humidity
    00:00 +18°C° 0.1 mm 1 mps 645 mmHg 97%
    01:00 +18°C° 0.1 mm 1 mps 645 mmHg 98%
    02:00 +18°C° 0.2 mm 1 mps 644 mmHg 98%
    03:00 +18°C° 0.2 mm 1 mps 644 mmHg 97%
    04:00 +18°C° 0.2 mm 1 mps 644 mmHg 97%
    05:00 +18°C° 0.1 mm 1 mps 645 mmHg 97%
    06:00 +18°C° 0.1 mm 1 mps 645 mmHg 97%
    07:00 +18°C° 0.1 mm 1 mps 645 mmHg 97%
    08:00 +19°C° 0.3 mm 1 mps 646 mmHg 96%
    09:00 +20°C° 0.3 mm 1 mps 646 mmHg 95%
    10:00 +21°C° 0.3 mm 1 mps 647 mmHg 94%
    11:00 +21°C° 1.2 mm 1 mps 646 mmHg 93%
    12:00 +21°C° 1.2 mm 1 mps 646 mmHg 93%
    13:00 +22°C° 1.2 mm 1 mps 646 mmHg 93%
    14:00 +21°C° 0.8 mm 1 mps 645 mmHg 92%
    15:00 +21°C° 0.8 mm 1 mps 645 mmHg 92%
    16:00 +21°C° 0.8 mm 1 mps 644 mmHg 92%
    17:00 +20°C° 0.7 mm 1 mps 644 mmHg 93%
    18:00 +19°C° 0.7 mm 1 mps 644 mmHg 94%
    19:00 +19°C° 0.7 mm 1 mps 644 mmHg 96%
    20:00 +18°C° 0.2 mm 1 mps 644 mmHg 96%
    21:00 +18°C° 0.2 mm 1 mps 645 mmHg 96%
    22:00 +18°C° 0.2 mm 1 mps 645 mmHg 96%
    23:00 +18°C° 0.2 mm 1 mps 645 mmHg 96%
    Show more